sat.trackr.live / text

‹ back to catalog

STARLINK-4468

NORAD 53969 · 2022-125F

PAYLOAD ACTIVE UNKNOWN

§ Identity

Operator
Country
US
Launch date
2022-10-05
Launch site
AFWTR
Launch vehicle
Mass (kg)
RCS (m²)

Purposes: comms

External: N2YO · Heavens-Above · Gunter

§ Orbital elements

Epoch: 2026-05-24T16:14:41.186976Z

Period
95.44 min
Inclination
53.2165°
Eccentricity
0.0001162
Mean motion
15.08838952 rev/d
Perigee alt
538.9 km
Apogee alt
540.6 km
Semi-major
6,917.9 km
B*
1.6963e-5
RAAN
242.9963°
Arg perigee
93.2153°
Mean anomaly
266.8973°
Rev number
20,079

§ Raw data

STARLINK-44681 53969U 22125F   26144.67686559 -.00000018  00000+0  16963-4 0  99912 53969  53.2165 242.9963 0001162  93.2153 266.8973 15.08838952200792

JSON: /api/v1/satellites/53969 · /tle

For live sub-satellite position, see the globe view (requires WebGL).

§ Visibility from observer

Set your observer location to see the next 7 days of passes ≥ 10°. The values pass through the URL so the page stays shareable.

No JS? Fill the form by hand. The geolocation button needs JavaScript.